Left ArrowRight Arrow

31.31129, -92.44514

Hourly Observations for June 20, 2024

Temp ( °F °C ) Dew Point ( °F °C ) Humidity (%) Winds ( mph kmh ) Pressure ( in mb ) Visibility ( mi km ) Precip ( " mm )
12:53 am 00:53 Clear 76 24.4 73 22.8 91 91 E 6 9 30.08 1019 10 16 0.00 0.00
1:53 am 01:53 Mostly Clear 76 24.4 73 22.8 91 91 ENE 3 6 30.08 1019 10 16 0.00 0.00
2:53 am 02:53 Clear 76 24.4 73 22.8 91 91 ENE 6 9 30.07 1018 10 16 0.00 0.00
3:53 am 03:53 Clear 75 23.9 73 22.8 94 94 ENE 6 9 30.07 1018 10 16 0.00 0.00
4:53 am 04:53 Clear 75 23.9 73 22.8 94 94 ENE 6 9 30.09 1019 10 16 0.00 0.00
5:53 am 05:53 Clear 74 23.3 73 22.8 97 97 NE 5 7 30.10 1019 9 14 0.00 0.00
6:53 am 06:53 Sunny 74 23.3 73 22.8 97 97 ENE 5 7 30.11 1020 7 11 0.00 0.00
7:53 am 07:53 Cloudy 77 25 74 23.3 90 90 ENE 6 9 30.13 1020 9 14 0.00 0.00
8:53 am 08:53 Sunny 81 27.2 74 23.3 79 79 E 13 20 30.15 1021 10 16 0.00 0.00
9:53 am 09:53 Sunny 84 28.9 73 22.8 70 70 ESE 9 15 30.16 1021 10 16 0.00 0.00
10:53 am 10:53 Partly Cloudy 87 30.6 73 22.8 63 63 E 8 13 30.16 1022 10 16 0.00 0.00
11:53 am 11:53 Mostly Sunny 89 31.7 73 22.8 59 59 ESE 10 17 30.16 1021 10 16 0.00 0.00
12:53 pm 12:53 Mostly Sunny 91 32.8 72 22.2 54 54 E 10 17 30.15 1021 10 16 0.00 0.00
1:53 pm 13:53 Mostly Sunny 91 32.8 73 22.8 56 56 E 9 15 30.14 1021 10 16 0.00 0.00
2:53 pm 14:53 Partly Cloudy 92 33.3 73 22.8 54 54 ENE 9 15 30.12 1020 10 16 0.00 0.00
3:53 pm 15:53 Partly Cloudy 90 32.2 71 21.7 54 54 ENE 8 13 30.11 1020 10 16 0.00 0.00
4:53 pm 16:53 Sunny 92 33.3 70 21.1 49 49 E 10 17 30.10 1019 10 16 0.00 0.00
5:53 pm 17:53 Sunny 91 32.8 69 20.6 49 49 E 10 17 30.09 1019 10 16 0.00 0.00
6:53 pm 18:53 Sunny 89 31.7 68 20 50 50 E 9 15 30.09 1019 10 16 0.00 0.00
7:53 pm 19:53 Sunny 86 30 69 20.6 57 57 E 9 15 30.10 1019 10 16 0.00 0.00
8:53 pm 20:53 Clear 84 28.9 70 21.1 63 63 E 7 11 30.11 1020 10 16 0.00 0.00
9:53 pm 21:53 Clear 82 27.8 70 21.1 67 67 E 6 9 30.12 1020 10 16 0.00 0.00
10:53 pm 22:53 Clear 80 26.7 70 21.1 71 71 ENE 6 9 30.13 1020 10 16 0.00 0.00
11:53 pm 23:53 Clear 78 25.6 70 21.1 76 76 SSE 3 6 30.15 1021 10 16 0.00 0.00

Powered by Vaisala Xweather